Year,Month,Day,Hour,Minute,Value (Times are PST for temperature in C)
2009,06,02,00,00,18.70
2009,06,02,00,01,18.70
2009,06,02,00,02,18.70
2009,06,02,00,03,18.70
2009,06,02,00,04,18.70
2009,06,02,00,05,18.70
2009,06,02,00,06,18.70
2009,06,02,00,07,18.60
2009,06,02,00,08,18.60
2009,06,02,00,09,18.50
2009,06,02,00,10,18.50
2009,06,02,00,11,18.40
2009,06,02,00,12,18.40
2009,06,02,00,13,18.40
2009,06,02,00,14,18.40
2009,06,02,00,15,18.30
2009,06,02,00,16,18.30
2009,06,02,00,17,18.30
2009,06,02,00,18,18.30
2009,06,02,00,19,18.20
2009,06,02,00,20,18.20
2009,06,02,00,21,18.20
2009,06,02,00,22,18.20
2009,06,02,00,23,18.20
2009,06,02,00,24,18.10
2009,06,02,00,25,18.10
2009,06,02,00,26,18.10
2009,06,02,00,27,18.00
2009,06,02,00,28,17.90
2009,06,02,00,29,17.90
2009,06,02,00,30,17.90
2009,06,02,00,31,17.90
2009,06,02,00,32,17.90
2009,06,02,00,33,17.80
2009,06,02,00,34,17.80
2009,06,02,00,35,17.70
2009,06,02,00,36,17.70
2009,06,02,00,37,17.70
2009,06,02,00,38,17.70
2009,06,02,00,39,17.60
2009,06,02,00,40,17.50
2009,06,02,00,41,17.50
2009,06,02,00,42,17.40
2009,06,02,00,43,17.40
2009,06,02,00,44,17.40
2009,06,02,00,45,17.30
2009,06,02,00,46,17.30
2009,06,02,00,47,17.30
2009,06,02,00,48,17.30
2009,06,02,00,49,17.30
2009,06,02,00,50,17.30
2009,06,02,00,51,17.30
2009,06,02,00,52,17.30
2009,06,02,00,53,17.30
2009,06,02,00,54,17.30
2009,06,02,00,55,17.30
2009,06,02,00,56,17.30
2009,06,02,00,57,17.20
2009,06,02,00,58,17.20
2009,06,02,00,59,17.20
2009,06,02,01,00,17.10
2009,06,02,01,01,17.10
2009,06,02,01,02,17.00
2009,06,02,01,03,17.00
2009,06,02,01,04,17.00
2009,06,02,01,05,17.00
2009,06,02,01,06,17.00
2009,06,02,01,07,17.00
2009,06,02,01,08,17.00
2009,06,02,01,09,17.00
2009,06,02,01,10,17.00
2009,06,02,01,11,16.90
2009,06,02,01,12,16.90
2009,06,02,01,13,16.90
2009,06,02,01,14,16.80
2009,06,02,01,15,16.80
2009,06,02,01,16,16.70
2009,06,02,01,17,16.70
2009,06,02,01,18,16.70
2009,06,02,01,19,16.70
2009,06,02,01,20,16.70
2009,06,02,01,21,16.70
2009,06,02,01,22,16.70
2009,06,02,01,23,16.70
2009,06,02,01,24,16.70
2009,06,02,01,25,16.60
2009,06,02,01,26,16.60
2009,06,02,01,27,16.70
2009,06,02,01,28,16.70
2009,06,02,01,29,16.70
2009,06,02,01,30,16.70
2009,06,02,01,31,16.70
2009,06,02,01,32,16.70
2009,06,02,01,33,16.70
2009,06,02,01,34,16.70
2009,06,02,01,35,16.70
2009,06,02,01,36,16.70
2009,06,02,01,37,16.70
2009,06,02,01,38,16.70
2009,06,02,01,39,16.70
2009,06,02,01,40,16.70
2009,06,02,01,41,16.70
2009,06,02,01,42,16.60
2009,06,02,01,43,16.60
2009,06,02,01,44,16.60
2009,06,02,01,45,16.50
2009,06,02,01,46,16.40
2009,06,02,01,47,16.40
2009,06,02,01,48,16.40
2009,06,02,01,49,16.40
2009,06,02,01,50,16.40
2009,06,02,01,51,16.40
2009,06,02,01,52,16.40
2009,06,02,01,53,16.40
2009,06,02,01,54,16.40
2009,06,02,01,55,16.30
2009,06,02,01,56,16.30
2009,06,02,01,57,16.30
2009,06,02,01,58,16.30
2009,06,02,01,59,16.30
2009,06,02,02,00,16.30
2009,06,02,02,01,16.20
2009,06,02,02,02,16.20
2009,06,02,02,03,16.20
2009,06,02,02,04,16.20
2009,06,02,02,05,16.20
2009,06,02,02,06,16.20
2009,06,02,02,07,16.10
2009,06,02,02,08,16.10
2009,06,02,02,09,16.10
2009,06,02,02,10,16.10
2009,06,02,02,11,16.10
2009,06,02,02,12,16.10
2009,06,02,02,13,16.10
2009,06,02,02,14,16.10
2009,06,02,02,15,16.10
2009,06,02,02,16,16.10
2009,06,02,02,17,16.10
2009,06,02,02,18,16.10
2009,06,02,02,19,16.10
2009,06,02,02,20,16.10
2009,06,02,02,21,16.10
2009,06,02,02,22,16.10
2009,06,02,02,23,16.10
2009,06,02,02,24,16.10
2009,06,02,02,25,16.10
2009,06,02,02,26,16.10
2009,06,02,02,27,16.10
2009,06,02,02,28,16.10
2009,06,02,02,29,16.10
2009,06,02,02,30,16.10
2009,06,02,02,31,16.10
2009,06,02,02,32,16.10
2009,06,02,02,33,16.10
2009,06,02,02,34,16.10
2009,06,02,02,35,16.10
2009,06,02,02,36,16.10
2009,06,02,02,37,15.90
2009,06,02,02,38,15.90
2009,06,02,02,39,15.90
2009,06,02,02,40,15.90
2009,06,02,02,41,15.90
2009,06,02,02,42,15.90
2009,06,02,02,43,15.90
2009,06,02,02,44,15.90
2009,06,02,02,45,15.90
2009,06,02,02,46,15.80
2009,06,02,02,47,15.80
2009,06,02,02,48,15.80
2009,06,02,02,49,15.80
2009,06,02,02,50,15.80
2009,06,02,02,51,15.80
2009,06,02,02,52,15.80
2009,06,02,02,53,15.80
2009,06,02,02,54,15.80
2009,06,02,02,55,15.80
2009,06,02,02,56,15.70
2009,06,02,02,57,15.70
2009,06,02,02,58,15.70
2009,06,02,02,59,15.70
2009,06,02,03,00,15.70
2009,06,02,03,01,15.60
2009,06,02,03,02,15.60
2009,06,02,03,03,15.60
2009,06,02,03,04,15.60
2009,06,02,03,05,15.60
2009,06,02,03,06,15.60
2009,06,02,03,07,15.60
2009,06,02,03,08,15.60
2009,06,02,03,09,15.50
2009,06,02,03,10,15.50
2009,06,02,03,11,15.50
2009,06,02,03,12,15.50
2009,06,02,03,13,15.50
2009,06,02,03,14,15.60
2009,06,02,03,15,15.60
2009,06,02,03,16,15.60
2009,06,02,03,17,15.50
2009,06,02,03,18,15.50
2009,06,02,03,19,15.50
2009,06,02,03,20,15.50
2009,06,02,03,21,15.50
2009,06,02,03,22,15.40
2009,06,02,03,23,15.40
2009,06,02,03,24,15.40
2009,06,02,03,25,15.40
2009,06,02,03,26,15.30
2009,06,02,03,27,15.30
2009,06,02,03,28,15.30
2009,06,02,03,29,15.30
2009,06,02,03,30,15.20
2009,06,02,03,31,15.20
2009,06,02,03,32,15.10
2009,06,02,03,33,15.10
2009,06,02,03,34,15.00
2009,06,02,03,35,15.00
2009,06,02,03,36,14.90
2009,06,02,03,37,14.80
2009,06,02,03,38,14.70
2009,06,02,03,39,14.60
2009,06,02,03,40,14.60
2009,06,02,03,41,14.50
2009,06,02,03,42,14.30
2009,06,02,03,43,14.20
2009,06,02,03,44,14.10
2009,06,02,03,45,13.90
2009,06,02,03,46,13.80
2009,06,02,03,47,13.70
2009,06,02,03,48,13.60
2009,06,02,03,49,13.50
2009,06,02,03,50,13.40
2009,06,02,03,51,13.30
2009,06,02,03,52,13.20
2009,06,02,03,53,13.20
2009,06,02,03,54,13.10
2009,06,02,03,55,13.00
2009,06,02,03,56,13.00
2009,06,02,03,57,12.90
2009,06,02,03,58,12.80
2009,06,02,03,59,12.80
2009,06,02,04,00,12.80
2009,06,02,04,01,12.70
2009,06,02,04,02,12.70
2009,06,02,04,03,12.60
2009,06,02,04,04,12.60
2009,06,02,04,05,12.60
2009,06,02,04,06,12.50
2009,06,02,04,07,12.50
2009,06,02,04,08,12.50
2009,06,02,04,09,12.40
2009,06,02,04,10,12.40
2009,06,02,04,11,12.40
2009,06,02,04,12,12.40
2009,06,02,04,13,12.40
2009,06,02,04,14,12.40
2009,06,02,04,15,12.30
2009,06,02,04,16,12.30
2009,06,02,04,17,12.30
2009,06,02,04,18,12.30
2009,06,02,04,19,12.30
2009,06,02,04,20,12.30
2009,06,02,04,21,12.30
2009,06,02,04,22,12.30
2009,06,02,04,23,12.20
2009,06,02,04,24,12.20
2009,06,02,04,25,12.20
2009,06,02,04,26,12.20
2009,06,02,04,27,12.20
2009,06,02,04,28,12.20
2009,06,02,04,29,12.20
2009,06,02,04,30,12.20
2009,06,02,04,31,12.20
2009,06,02,04,32,12.20
2009,06,02,04,33,12.20
2009,06,02,04,34,12.20
2009,06,02,04,35,12.20
2009,06,02,04,36,12.20
2009,06,02,04,37,12.20
2009,06,02,04,38,12.30
2009,06,02,04,39,12.30
2009,06,02,04,40,12.30
2009,06,02,04,41,12.30
2009,06,02,04,42,12.30
2009,06,02,04,43,12.40
2009,06,02,04,44,12.40
2009,06,02,04,45,12.40
2009,06,02,04,46,12.40
2009,06,02,04,47,12.40
2009,06,02,04,48,12.50
2009,06,02,04,49,12.50
2009,06,02,04,50,12.50
2009,06,02,04,51,12.60
2009,06,02,04,52,12.60
2009,06,02,04,53,12.70
2009,06,02,04,54,12.70
2009,06,02,04,55,12.70
2009,06,02,04,56,12.80
2009,06,02,04,57,12.80
2009,06,02,04,58,12.80
2009,06,02,04,59,12.80
2009,06,02,05,00,12.80
2009,06,02,05,01,12.80
2009,06,02,05,02,12.80
2009,06,02,05,03,12.80
2009,06,02,05,04,12.80
2009,06,02,05,05,12.90
2009,06,02,05,06,12.90
2009,06,02,05,07,12.90
2009,06,02,05,08,13.00
2009,06,02,05,09,13.00
2009,06,02,05,10,13.10
2009,06,02,05,11,13.10
2009,06,02,05,12,13.10
2009,06,02,05,13,13.20
2009,06,02,05,14,13.20
2009,06,02,05,15,13.20
2009,06,02,05,16,13.20
2009,06,02,05,17,13.30
2009,06,02,05,18,13.30
2009,06,02,05,19,13.30
2009,06,02,05,20,13.30
2009,06,02,05,21,13.30
2009,06,02,05,22,13.30
2009,06,02,05,23,13.30
2009,06,02,05,24,13.30
2009,06,02,05,25,13.30
2009,06,02,05,26,13.30
2009,06,02,05,27,13.30
2009,06,02,05,28,13.30
2009,06,02,05,29,13.30
2009,06,02,05,30,13.30
2009,06,02,05,31,13.40
2009,06,02,05,32,13.40
2009,06,02,05,33,13.40
2009,06,02,05,34,13.50
2009,06,02,05,35,13.50
2009,06,02,05,36,13.50
2009,06,02,05,37,13.60
2009,06,02,05,38,13.60
2009,06,02,05,39,13.60
2009,06,02,05,40,13.60
2009,06,02,05,41,13.70
2009,06,02,05,42,13.70
2009,06,02,05,43,13.70
2009,06,02,05,44,13.70
2009,06,02,05,45,13.70
2009,06,02,05,46,13.70
2009,06,02,05,47,13.70
2009,06,02,05,48,13.80
2009,06,02,05,49,13.80
2009,06,02,05,50,13.90
2009,06,02,05,51,13.90
2009,06,02,05,52,14.00
2009,06,02,05,53,14.00
2009,06,02,05,54,14.10
2009,06,02,05,55,14.10
2009,06,02,05,56,14.20
2009,06,02,05,57,14.20
2009,06,02,05,58,14.20
2009,06,02,05,59,14.20
2009,06,02,06,00,14.30
2009,06,02,06,01,14.40
2009,06,02,06,02,14.50
2009,06,02,06,03,14.50
2009,06,02,06,04,14.60
2009,06,02,06,05,14.70
2009,06,02,06,06,14.80
2009,06,02,06,07,14.80
2009,06,02,06,08,14.90
2009,06,02,06,09,14.90
2009,06,02,06,10,15.00
2009,06,02,06,11,15.10
2009,06,02,06,12,15.10
2009,06,02,06,13,15.20
2009,06,02,06,14,15.20
2009,06,02,06,15,15.30
2009,06,02,06,16,15.30
2009,06,02,06,17,15.30
2009,06,02,06,18,15.30
2009,06,02,06,19,15.30
2009,06,02,06,20,15.30
2009,06,02,06,21,15.30
2009,06,02,06,22,15.30
2009,06,02,06,23,15.30
2009,06,02,06,24,15.30
2009,06,02,06,25,15.40
2009,06,02,06,26,15.40
2009,06,02,06,27,15.40
2009,06,02,06,28,15.50
2009,06,02,06,29,15.50
2009,06,02,06,30,15.60
2009,06,02,06,31,15.60
2009,06,02,06,32,15.70
2009,06,02,06,33,15.70
2009,06,02,06,34,15.70
2009,06,02,06,35,15.70
2009,06,02,06,36,15.80
2009,06,02,06,37,15.80
2009,06,02,06,38,15.80
2009,06,02,06,39,15.80
2009,06,02,06,40,15.80
2009,06,02,06,41,15.80
2009,06,02,06,42,15.80
2009,06,02,06,43,15.80
2009,06,02,06,44,15.90
2009,06,02,06,45,15.90
2009,06,02,06,46,15.90
2009,06,02,06,47,15.90
2009,06,02,06,48,15.90
2009,06,02,06,49,16.00
2009,06,02,06,50,16.10
2009,06,02,06,51,16.10
2009,06,02,06,52,16.10
2009,06,02,06,53,16.10
2009,06,02,06,54,16.10
2009,06,02,06,55,16.10
2009,06,02,06,56,16.10
2009,06,02,06,57,16.10
2009,06,02,06,58,16.10
2009,06,02,06,59,16.20
2009,06,02,07,00,16.20
2009,06,02,07,01,16.20
2009,06,02,07,02,16.30
2009,06,02,07,03,16.30
2009,06,02,07,04,16.30
2009,06,02,07,05,16.30
2009,06,02,07,06,16.30
2009,06,02,07,07,16.30
2009,06,02,07,08,16.30
2009,06,02,07,09,16.30
2009,06,02,07,10,16.30
2009,06,02,07,11,16.30
2009,06,02,07,12,16.30
2009,06,02,07,13,16.30
2009,06,02,07,14,16.30
2009,06,02,07,15,16.30
2009,06,02,07,16,16.30
2009,06,02,07,17,16.30
2009,06,02,07,18,16.30
2009,06,02,07,19,16.40
2009,06,02,07,20,16.40
2009,06,02,07,21,16.40
2009,06,02,07,22,16.40
2009,06,02,07,23,16.40
2009,06,02,07,24,16.40
2009,06,02,07,25,16.50
2009,06,02,07,26,16.60
2009,06,02,07,27,16.60
2009,06,02,07,28,16.60
2009,06,02,07,29,16.60
2009,06,02,07,30,16.70
2009,06,02,07,31,16.70
2009,06,02,07,32,16.70
2009,06,02,07,33,16.80
2009,06,02,07,34,16.80
2009,06,02,07,35,16.90
2009,06,02,07,36,17.00
2009,06,02,07,37,17.00
2009,06,02,07,38,17.10
2009,06,02,07,39,17.20
2009,06,02,07,40,17.20
2009,06,02,07,41,17.30
2009,06,02,07,42,17.40
2009,06,02,07,43,17.40
2009,06,02,07,44,17.50
2009,06,02,07,45,17.60
2009,06,02,07,46,17.70
2009,06,02,07,47,17.70
2009,06,02,07,48,17.80
2009,06,02,07,49,17.90
2009,06,02,07,50,17.90
2009,06,02,07,51,17.90
2009,06,02,07,52,17.90
2009,06,02,07,53,18.10
2009,06,02,07,54,18.10
2009,06,02,07,55,18.10
2009,06,02,07,56,18.20
2009,06,02,07,57,18.20
2009,06,02,07,58,18.20
2009,06,02,07,59,18.20
2009,06,02,08,00,18.20
2009,06,02,08,01,18.20
2009,06,02,08,02,18.30
2009,06,02,08,03,18.30
2009,06,02,08,04,18.30
2009,06,02,08,05,18.40
2009,06,02,08,06,18.40
2009,06,02,08,07,18.40
2009,06,02,08,08,18.40
2009,06,02,08,09,18.40
2009,06,02,08,10,18.40
2009,06,02,08,11,18.50
2009,06,02,08,12,18.50
2009,06,02,08,13,18.50
2009,06,02,08,14,18.50
2009,06,02,08,15,18.60
2009,06,02,08,16,18.60
2009,06,02,08,17,18.60
2009,06,02,08,18,18.60
2009,06,02,08,19,18.60
2009,06,02,08,20,18.60
2009,06,02,08,21,18.70
2009,06,02,08,22,18.70
2009,06,02,08,23,18.70
2009,06,02,08,24,18.70
2009,06,02,08,25,18.70
2009,06,02,08,26,18.70
2009,06,02,08,27,18.70
2009,06,02,08,28,18.70
2009,06,02,08,29,18.80
2009,06,02,08,30,18.80
2009,06,02,08,31,18.80
2009,06,02,08,32,18.80
2009,06,02,08,33,18.80
2009,06,02,08,34,18.90
2009,06,02,08,35,18.90
2009,06,02,08,36,18.90
2009,06,02,08,37,18.90
2009,06,02,08,38,18.90
2009,06,02,08,39,18.90
2009,06,02,08,40,18.90
2009,06,02,08,41,18.90
2009,06,02,08,42,18.90
2009,06,02,08,43,18.90
2009,06,02,08,44,18.90
2009,06,02,08,45,18.90
2009,06,02,08,46,18.90
2009,06,02,08,47,18.90
2009,06,02,08,48,18.90
2009,06,02,08,49,18.90
2009,06,02,08,50,18.90
2009,06,02,08,51,18.90
2009,06,02,08,52,18.90
2009,06,02,08,53,18.90
2009,06,02,08,54,18.90
2009,06,02,08,55,19.00
2009,06,02,08,56,19.10
2009,06,02,08,57,19.10
2009,06,02,08,58,19.10
2009,06,02,08,59,19.10
2009,06,02,09,00,19.10
2009,06,02,09,01,19.10
2009,06,02,09,02,19.10
2009,06,02,09,03,19.20
2009,06,02,09,04,19.30
2009,06,02,09,05,19.30
2009,06,02,09,06,19.40
2009,06,02,09,07,19.50
2009,06,02,09,08,19.60
2009,06,02,09,09,19.70
2009,06,02,09,10,19.70
2009,06,02,09,11,19.70
2009,06,02,09,12,19.80
2009,06,02,09,13,19.80
2009,06,02,09,14,19.80
2009,06,02,09,15,19.80
2009,06,02,09,16,19.90
2009,06,02,09,17,19.90
2009,06,02,09,18,19.90
2009,06,02,09,19,19.90
2009,06,02,09,20,19.90
2009,06,02,09,21,19.90
2009,06,02,09,22,19.90
2009,06,02,09,23,19.90
2009,06,02,09,24,19.90
2009,06,02,09,25,19.90
2009,06,02,09,26,19.90
2009,06,02,09,27,19.90
2009,06,02,09,28,19.90
2009,06,02,09,29,20.10
2009,06,02,09,30,20.10
2009,06,02,09,31,20.10
2009,06,02,09,32,20.10
2009,06,02,09,33,20.20
2009,06,02,09,34,20.20
2009,06,02,09,35,20.20
2009,06,02,09,36,20.30
2009,06,02,09,37,20.40
2009,06,02,09,38,20.50
2009,06,02,09,39,20.60
2009,06,02,09,40,20.60
2009,06,02,09,41,20.70
2009,06,02,09,42,20.80
2009,06,02,09,43,20.90
2009,06,02,09,44,21.00
2009,06,02,09,45,21.00
2009,06,02,09,46,21.10
2009,06,02,09,47,21.10
2009,06,02,09,48,21.10
2009,06,02,09,49,21.20
2009,06,02,09,50,21.30
2009,06,02,09,51,21.30
2009,06,02,09,52,21.40
2009,06,02,09,53,21.50
2009,06,02,09,54,21.60
2009,06,02,09,55,21.60
2009,06,02,09,56,21.60
2009,06,02,09,57,21.70
2009,06,02,09,58,21.80
2009,06,02,09,59,21.90
2009,06,02,10,00,21.90
2009,06,02,10,01,21.90
2009,06,02,10,02,22.00
2009,06,02,10,03,22.00
2009,06,02,10,04,22.00
2009,06,02,10,05,22.00
2009,06,02,10,06,22.10
2009,06,02,10,07,22.10
2009,06,02,10,08,22.20
2009,06,02,10,09,22.20
2009,06,02,10,10,22.30
2009,06,02,10,11,22.30
2009,06,02,10,12,22.30
2009,06,02,10,13,22.30
2009,06,02,10,14,22.40
2009,06,02,10,15,22.40
2009,06,02,10,16,22.40
2009,06,02,10,17,22.40
2009,06,02,10,18,22.50
2009,06,02,10,19,22.50
2009,06,02,10,20,22.50
2009,06,02,10,21,22.50
2009,06,02,10,22,22.50
2009,06,02,10,23,22.50
2009,06,02,10,24,22.60
2009,06,02,10,25,22.60
2009,06,02,10,26,22.70
2009,06,02,10,27,22.70
2009,06,02,10,28,22.70
2009,06,02,10,29,22.80
2009,06,02,10,30,22.80
2009,06,02,10,31,22.80
2009,06,02,10,32,22.80
2009,06,02,10,33,22.80
2009,06,02,10,34,22.80
2009,06,02,10,35,22.80
2009,06,02,10,36,22.80
2009,06,02,10,37,22.80
2009,06,02,10,38,22.80
2009,06,02,10,39,22.70
2009,06,02,10,40,22.70
2009,06,02,10,41,22.80
2009,06,02,10,42,22.80
2009,06,02,10,43,22.70
2009,06,02,10,44,22.70
2009,06,02,10,45,22.60
2009,06,02,10,46,22.60
2009,06,02,10,47,22.50
2009,06,02,10,48,22.50
2009,06,02,10,49,22.50
2009,06,02,10,50,22.50
2009,06,02,10,51,22.50
2009,06,02,10,52,22.50
2009,06,02,10,53,22.50
2009,06,02,10,54,22.50
2009,06,02,10,55,22.50
2009,06,02,10,56,22.50
2009,06,02,10,57,22.50
2009,06,02,10,58,22.50
2009,06,02,10,59,22.50
2009,06,02,11,00,22.50
2009,06,02,11,01,22.60
2009,06,02,11,02,22.60
2009,06,02,11,03,22.60
2009,06,02,11,04,22.70
2009,06,02,11,05,22.80
2009,06,02,11,06,22.80
2009,06,02,11,07,22.70
2009,06,02,11,08,22.70
2009,06,02,11,09,22.80
2009,06,02,11,10,22.80
2009,06,02,11,11,22.90
2009,06,02,11,12,22.90
2009,06,02,11,13,22.90
2009,06,02,11,14,22.90
2009,06,02,11,15,22.90
2009,06,02,11,16,22.90
2009,06,02,11,17,23.10
2009,06,02,11,18,23.10
2009,06,02,11,19,23.10
2009,06,02,11,20,23.20
2009,06,02,11,21,23.20
2009,06,02,11,22,23.20
2009,06,02,11,23,23.30
2009,06,02,11,24,23.30
2009,06,02,11,25,23.30
2009,06,02,11,26,23.30
2009,06,02,11,27,23.30
2009,06,02,11,28,23.30
2009,06,02,11,29,23.30
2009,06,02,11,30,23.30
2009,06,02,11,31,23.30
2009,06,02,11,32,23.30
2009,06,02,11,33,23.30
2009,06,02,11,34,23.40
2009,06,02,11,35,23.50
2009,06,02,11,36,23.60
2009,06,02,11,37,23.70
2009,06,02,11,38,23.70
2009,06,02,11,39,23.70
2009,06,02,11,40,23.80
2009,06,02,11,41,23.80
2009,06,02,11,42,23.80
2009,06,02,11,43,23.90
2009,06,02,11,44,24.10
2009,06,02,11,45,24.10
2009,06,02,11,46,24.10
2009,06,02,11,47,24.10
2009,06,02,11,48,24.20
2009,06,02,11,49,24.30
2009,06,02,11,50,24.50
2009,06,02,11,51,24.50
2009,06,02,11,52,24.40
2009,06,02,11,53,24.30
2009,06,02,11,54,24.20
2009,06,02,11,55,24.10
2009,06,02,11,56,24.10
2009,06,02,11,57,24.00
2009,06,02,11,58,24.10
2009,06,02,11,59,24.10
2009,06,02,12,00,24.20
2009,06,02,12,01,24.30
2009,06,02,12,02,24.40
2009,06,02,12,03,24.40
2009,06,02,12,04,24.40
2009,06,02,12,05,24.50
2009,06,02,12,06,24.60
2009,06,02,12,07,24.70
2009,06,02,12,08,24.70
2009,06,02,12,09,24.70
2009,06,02,12,10,24.70
2009,06,02,12,11,24.70
2009,06,02,12,12,24.80
2009,06,02,12,13,24.80
2009,06,02,12,14,24.80
2009,06,02,12,15,24.80
2009,06,02,12,16,24.80
2009,06,02,12,17,24.70
2009,06,02,12,18,24.70
2009,06,02,12,19,24.70
2009,06,02,12,20,24.70
2009,06,02,12,21,24.70
2009,06,02,12,22,24.70
2009,06,02,12,23,24.80
2009,06,02,12,24,24.80
2009,06,02,12,25,24.80
2009,06,02,12,26,24.90
2009,06,02,12,27,24.90
2009,06,02,12,28,24.80
2009,06,02,12,29,24.80
2009,06,02,12,30,24.80
2009,06,02,12,31,24.80
2009,06,02,12,32,24.80
2009,06,02,12,33,24.80
2009,06,02,12,34,24.80
2009,06,02,12,35,24.80
2009,06,02,12,36,24.80
2009,06,02,12,37,24.90
2009,06,02,12,38,24.90
2009,06,02,12,39,24.90
2009,06,02,12,40,24.90
2009,06,02,12,41,24.90
2009,06,02,12,42,25.00
2009,06,02,12,43,25.10
2009,06,02,12,44,25.10
2009,06,02,12,45,25.20
2009,06,02,12,46,25.20
2009,06,02,12,47,25.20
2009,06,02,12,48,25.20
2009,06,02,12,49,25.20
2009,06,02,12,50,25.20
2009,06,02,12,51,25.30
2009,06,02,12,52,25.40
2009,06,02,12,53,25.40
2009,06,02,12,54,25.60
2009,06,02,12,55,25.60
2009,06,02,12,56,25.70
2009,06,02,12,57,25.70
2009,06,02,12,58,25.80
2009,06,02,12,59,25.80
2009,06,02,13,00,25.90
2009,06,02,13,01,25.90
2009,06,02,13,02,26.00
2009,06,02,13,03,26.00
2009,06,02,13,04,26.00
2009,06,02,13,05,26.00
2009,06,02,13,06,25.90
2009,06,02,13,07,25.90
2009,06,02,13,08,25.90
2009,06,02,13,09,25.80
2009,06,02,13,10,25.90
2009,06,02,13,11,25.90
2009,06,02,13,12,25.90
2009,06,02,13,13,25.90
2009,06,02,13,14,25.90
2009,06,02,13,15,25.90
2009,06,02,13,16,26.00
2009,06,02,13,17,26.10
2009,06,02,13,18,26.10
2009,06,02,13,19,26.10
2009,06,02,13,20,26.10
2009,06,02,13,21,26.10
2009,06,02,13,22,26.20
2009,06,02,13,23,26.20
2009,06,02,13,24,26.30
2009,06,02,13,25,26.30
2009,06,02,13,26,26.30
2009,06,02,13,27,26.40
2009,06,02,13,28,26.40
2009,06,02,13,29,26.40
2009,06,02,13,30,26.40
2009,06,02,13,31,26.50
2009,06,02,13,32,26.60
2009,06,02,13,33,26.60
2009,06,02,13,34,26.50
2009,06,02,13,35,26.60
2009,06,02,13,36,26.60
2009,06,02,13,37,26.60
2009,06,02,13,38,26.60
2009,06,02,13,39,26.60
2009,06,02,13,40,26.70
2009,06,02,13,41,26.70
2009,06,02,13,42,26.80
2009,06,02,13,43,26.70
2009,06,02,13,44,26.70
2009,06,02,13,45,26.80
2009,06,02,13,46,26.70
2009,06,02,13,47,26.80
2009,06,02,13,48,26.80
2009,06,02,13,49,26.70
2009,06,02,13,50,26.70
2009,06,02,13,51,26.70
2009,06,02,13,52,26.70
2009,06,02,13,53,26.80
2009,06,02,13,54,26.90
2009,06,02,13,55,27.00
2009,06,02,13,56,27.10
2009,06,02,13,57,27.20
2009,06,02,13,58,27.30
2009,06,02,13,59,27.30
2009,06,02,14,00,27.40
2009,06,02,14,01,27.40
2009,06,02,14,02,27.40
2009,06,02,14,03,27.40
2009,06,02,14,04,27.60
2009,06,02,14,05,27.50
2009,06,02,14,06,27.40
2009,06,02,14,07,27.50
2009,06,02,14,08,27.60
2009,06,02,14,09,27.60
2009,06,02,14,10,27.60
2009,06,02,14,11,27.60
2009,06,02,14,12,27.60
2009,06,02,14,13,27.70
2009,06,02,14,14,27.70
2009,06,02,14,15,27.80
2009,06,02,14,16,27.90
2009,06,02,14,17,27.90
2009,06,02,14,18,27.90
2009,06,02,14,19,28.00
2009,06,02,14,20,28.00
2009,06,02,14,21,28.10
2009,06,02,14,22,28.10
2009,06,02,14,23,28.20
2009,06,02,14,24,28.30
2009,06,02,14,25,28.30
2009,06,02,14,26,28.30
2009,06,02,14,27,28.40
2009,06,02,14,28,28.40
2009,06,02,14,29,28.40
2009,06,02,14,30,28.30
2009,06,02,14,31,28.30
2009,06,02,14,32,28.40
2009,06,02,14,33,28.50
2009,06,02,14,34,28.60
2009,06,02,14,35,28.60
2009,06,02,14,36,28.60
2009,06,02,14,37,28.60
2009,06,02,14,38,28.60
2009,06,02,14,39,28.60
2009,06,02,14,40,28.60
2009,06,02,14,41,28.50
2009,06,02,14,42,28.40
2009,06,02,14,43,28.50
2009,06,02,14,44,28.60
2009,06,02,14,45,28.60
2009,06,02,14,46,28.60
2009,06,02,14,47,28.60
2009,06,02,14,48,28.60
2009,06,02,14,49,28.60
2009,06,02,14,50,28.50
2009,06,02,14,51,28.40
2009,06,02,14,52,28.40
2009,06,02,14,53,28.50
2009,06,02,14,54,28.60
2009,06,02,14,55,28.60
2009,06,02,14,56,28.60
2009,06,02,14,57,28.70
2009,06,02,14,58,28.70
2009,06,02,14,59,28.70
2009,06,02,15,00,28.70
2009,06,02,15,01,28.70
2009,06,02,15,02,28.70
2009,06,02,15,03,28.70
2009,06,02,15,04,28.80
2009,06,02,15,05,28.90
2009,06,02,15,06,28.90
2009,06,02,15,07,28.90
2009,06,02,15,08,28.90
2009,06,02,15,09,28.90
2009,06,02,15,10,28.90
2009,06,02,15,11,28.90
2009,06,02,15,12,28.90
2009,06,02,15,13,28.90
2009,06,02,15,14,28.90
2009,06,02,15,15,28.90
2009,06,02,15,16,28.90
2009,06,02,15,17,28.90
2009,06,02,15,18,28.90
2009,06,02,15,19,28.90
2009,06,02,15,20,29.00
2009,06,02,15,21,29.10
2009,06,02,15,22,29.10
2009,06,02,15,23,29.10
2009,06,02,15,24,29.00
2009,06,02,15,25,28.90
2009,06,02,15,26,28.90
2009,06,02,15,27,28.90
2009,06,02,15,28,28.90
2009,06,02,15,29,28.90
2009,06,02,15,30,28.90
2009,06,02,15,31,29.00
2009,06,02,15,32,29.10
2009,06,02,15,33,29.20
2009,06,02,15,34,29.30
2009,06,02,15,35,29.40
2009,06,02,15,36,29.40
2009,06,02,15,37,29.50
2009,06,02,15,38,29.60
2009,06,02,15,39,29.70
2009,06,02,15,40,29.80
2009,06,02,15,41,29.80
2009,06,02,15,42,29.90
2009,06,02,15,43,29.90
2009,06,02,15,44,30.00
2009,06,02,15,45,30.10
2009,06,02,15,46,30.10
2009,06,02,15,47,30.10
2009,06,02,15,48,30.10
2009,06,02,15,49,30.10
2009,06,02,15,50,30.00
2009,06,02,15,51,29.90
2009,06,02,15,52,29.90
2009,06,02,15,53,29.80
2009,06,02,15,54,29.70
2009,06,02,15,55,29.50
2009,06,02,15,56,29.40
2009,06,02,15,57,29.40
2009,06,02,15,58,29.30
2009,06,02,15,59,29.30
2009,06,02,16,00,29.20
2009,06,02,16,01,29.20
2009,06,02,16,02,29.10
2009,06,02,16,03,29.00
2009,06,02,16,04,28.90
2009,06,02,16,05,29.00
2009,06,02,16,06,29.10
2009,06,02,16,07,29.20
2009,06,02,16,08,29.20
2009,06,02,16,09,29.30
2009,06,02,16,10,29.30
2009,06,02,16,11,29.40
2009,06,02,16,12,29.30
2009,06,02,16,13,29.30
2009,06,02,16,14,29.40
2009,06,02,16,15,29.40
2009,06,02,16,16,29.40
2009,06,02,16,17,29.50
2009,06,02,16,18,29.50
2009,06,02,16,19,29.60
2009,06,02,16,20,29.70
2009,06,02,16,21,29.70
2009,06,02,16,22,29.70
2009,06,02,16,23,29.70
2009,06,02,16,24,29.70
2009,06,02,16,25,29.70
2009,06,02,16,26,29.70
2009,06,02,16,27,29.70
2009,06,02,16,28,29.70
2009,06,02,16,29,29.70
2009,06,02,16,30,29.70
2009,06,02,16,31,29.70
2009,06,02,16,32,29.80
2009,06,02,16,33,29.80
2009,06,02,16,34,29.70
2009,06,02,16,35,29.70
2009,06,02,16,36,29.70
2009,06,02,16,37,29.70
2009,06,02,16,38,29.70
2009,06,02,16,39,29.70
2009,06,02,16,40,29.60
2009,06,02,16,41,29.50
2009,06,02,16,42,29.50
2009,06,02,16,43,29.50
2009,06,02,16,44,29.50
2009,06,02,16,45,29.40
2009,06,02,16,46,29.40
2009,06,02,16,47,29.40
2009,06,02,16,48,29.40
2009,06,02,16,49,29.50
2009,06,02,16,50,29.50
2009,06,02,16,51,29.50
2009,06,02,16,52,29.50
2009,06,02,16,53,29.60
2009,06,02,16,54,29.70
2009,06,02,16,55,29.70
2009,06,02,16,56,29.70
2009,06,02,16,57,29.70
2009,06,02,16,58,29.60
2009,06,02,16,59,29.60
2009,06,02,17,00,29.60
2009,06,02,17,01,29.60
2009,06,02,17,02,29.60
2009,06,02,17,03,29.60
2009,06,02,17,04,29.60
2009,06,02,17,05,29.50
2009,06,02,17,06,29.50
2009,06,02,17,07,29.40
2009,06,02,17,08,29.40
2009,06,02,17,09,29.30
2009,06,02,17,10,29.30
2009,06,02,17,11,29.30
2009,06,02,17,12,29.30
2009,06,02,17,13,29.30
2009,06,02,17,14,29.30
2009,06,02,17,15,29.30
2009,06,02,17,16,29.30
2009,06,02,17,17,29.30
2009,06,02,17,18,29.30
2009,06,02,17,19,29.30